Location: Hartha
(51.1030°N, 12.9600°E)
Time: 23:01:01
(UTC+01:00)

Daily predictions for brighter satellites

Satellite Brightness Start Highest point End
(mag) Time Altitude Azimuth Time Altitude Azimuth Time Altitude Azimuth
Cosmos 1727 Rocket 4.1 18:52:21 10° S 18:58:33 66° E 19:04:52 10° NNE
Cosmos 1461 3.9 18:55:57 10° S 18:59:46 28° ESE 19:03:28 10° ENE
H-2A R/B 3.3 18:56:34 10° ESE 19:00:44 24° ENE 19:04:52 10° N
Iridium 4 Rocket 4.3 18:57:32 10° SE 19:01:34 28° ENE 19:05:56 10° NNE
Cosmos 1674 3.9 19:01:19 10° NNE 19:04:25 24° ENE 19:07:32 10° SE
Aureole 2 Rocket 2.3 19:01:36 10° SSW 19:04:59 86° WNW 19:08:12 10° NNE
Cosmos 1892 Rocket 4.2 19:05:23 10° NNW 19:09:40 60° W 19:13:55 10° S
Ariane Rocket 4.2 19:06:56 10° S 19:11:49 46° W 19:16:44 10° NNW
Cosmos 1766 4.3 19:08:42 10° SE 19:11:51 25° E 19:15:04 10° NE
Cosmos 1697 Rocket 2.7 19:08:43 10° SSW 19:14:16 62° ESE 19:19:52 10° NE
Cosmos 2322 Rocket 3.8 19:14:30 10° ESE 19:16:39 12° E 19:18:50 10° ENE
USA 186 2.1 19:13:33 10° SSE 19:16:48 48° ENE 19:19:56 10° N
Cosmos 1626 Rocket 3.6 19:16:25 10° N 19:20:51 69° ENE 19:25:17 10° SSE
NOAA 11 4.2 19:15:57 10° SSE 19:21:22 81° ENE 19:26:52 10° NNW
Cosmos 2369 3.7 19:16:15 10° SSW 19:21:55 84° ESE 19:27:40 10° NNE
Cosmos 2360 4.4 19:18:47 10° S 19:24:13 47° ESE 19:29:42 10° NE
Cosmos 1626 4.2 19:24:46 10° NE 19:26:14 12° ENE 19:27:05 11° ENE
ATLAS 3B R/B 4.0 19:23:09 10° SE 19:27:02 16° ESE 19:30:51 10° ENE
Cosmos 405 3.9 19:27:30 10° N 19:30:39 30° ENE 19:32:55 16° SE
Cosmos 1656 4.1 19:26:37 10° SW 19:32:09 68° WNW 19:37:39 10° NNE
In-Cosmos 22 4.3 19:26:29 10° NNW 19:32:10 83° W 19:37:38 10° S
Cosmos 2263 Rocket 2.5 19:28:31 10° NNW 19:33:57 50° NE 19:38:31 14° SE
Cosmos 2297 Rocket 4.5 19:29:52 10° NW 19:34:23 25° WSW 19:38:53 10° SSW
Cosmos 2123 Rocket 4.4 19:29:33 10° SSE 19:35:15 41° E 19:41:00 10° NNE
ISS -3.0 19:32:23 10° SW 19:35:23 33° SSE 19:37:09 19° E
Shenzhou-11 Module 4.1 19:34:27 10° S 19:35:39 12° SSE 19:36:08 12° SSE
Resurs 1-3 3.9 19:31:32 10° SE 19:35:44 46° ENE 19:39:57 10° N
Cosmos 1190 Rocket 4.2 19:31:24 10° S 19:36:30 51° ESE 19:41:39 10° NNE
Cosmos 2278 3.7 19:31:43 10° SSW 19:37:25 88° ESE 19:43:10 10° NNE
Cosmos 1733 4.4 19:35:40 15° SE 19:37:40 22° E 19:40:43 10° NE
Cosmos 2227 4.2 19:32:41 10° NNW 19:38:31 79° ENE 19:44:16 10° SSE
Cosmos 2016 Rocket 4.0 19:32:22 10° N 19:38:43 70° ENE 19:44:56 10° SSE
Cosmos 1939 Rocket 3.7 19:35:23 10° S 19:39:20 55° W 19:43:22 10° NNW
SL-16 R/B 3.3 19:36:35 10° SSE 19:40:45 21° E 19:44:55 10° NE
CZ-4C R/B 3.0 19:35:24 10° NW 19:42:24 85° SW 19:50:11 11° SE
Cosmos 2100 Rocket 4.2 19:37:22 10° NNW 19:43:38 76° W 19:49:55 10° S
FREGAT/IRIS 4.5 19:41:06 10° SSW 19:43:43 31° W 19:46:21 10° NNW
SJ-11-01 4.2 19:39:28 10° SSE 19:44:09 88° ENE 19:48:52 10° NNW
Cosmos 614 Rocket 4.1 19:40:21 10° S 19:45:20 50° ESE 19:50:23 10° NNE
Cosmos 407 Rocket 3.5 19:42:17 10° S 19:47:31 65° ESE 19:52:42 10° NNE
CZ-2C R/B 4.3 19:45:47 17° E 19:48:00 23° ENE 19:51:50 10° N
Cosmos 2173 Rocket 4.2 19:43:44 10° NNW 19:49:50 74° W 19:55:59 10° S
Genesis I 3.2 19:46:12 10° NW 19:50:18 79° NE 19:52:50 22° SE
Cosmos 1805 3.2 19:50:36 10° S 19:54:25 59° E 19:58:16 10° NNE
Cosmos 2061 Rocket 4.1 19:48:39 10° N 19:54:59 85° W 20:01:22 10° S
Cosmos 1340 3.9 19:52:17 10° SSW 19:55:56 45° WNW 19:59:36 10° N
SJ-6B 3.5 19:55:03 10° S 19:58:45 51° W 20:02:26 10° NNW
Meteor 1-24 Rocket 3.7 19:54:00 10° NNW 19:59:27 82° W 20:04:45 10° S
Cosmos 1602 Rocket 4.1 19:55:52 10° NNW 20:00:12 60° W 20:04:32 10° S
Cosmos 1802 Rocket 4.2 19:56:13 10° NNW 20:02:23 72° W 20:08:28 10° S
Cosmos 1864 Rocket 4.5 19:59:07 10° N 20:05:31 84° E 20:11:54 10° S
Cosmos 2228 3.8 20:05:58 28° E 20:06:23 29° E 20:10:07 10° NNE
COBE Rocket 3.8 20:01:45 10° NNE 20:06:41 62° E 20:11:26 10° S
Cosmos 1953 Rocket 3.8 20:02:52 10° N 20:07:05 46° ENE 20:08:51 29° SE
Cosmos 1140 Rocket 3.5 20:02:54 10° S 20:08:03 61° ESE 20:13:14 10° NNE
Cosmos 1953 3.7 20:09:27 22° ENE 20:09:27 22° ENE 20:11:54 10° NE
ERS-1 Rocket 4.2 20:07:14 22° E 20:08:40 26° ENE 20:12:46 10° N
Cosmos 2278 Rocket 4.3 20:05:39 10° N 20:08:51 15° NNE 20:12:02 10° ENE
Cosmos 1980 Rocket 2.2 20:03:30 10° SSW 20:09:11 88° ESE 20:14:56 10° NNE
Cosmos 1725 Rocket 4.0 20:02:59 10° N 20:09:19 88° ENE 20:15:35 10° S
USA 238 DEB 3.8 20:04:57 10° SSW 20:11:26 50° ESE 20:18:06 10° NE
USA 238 3.8 20:05:04 10° SSW 20:11:31 50° ESE 20:18:11 10° NE
USA 234 3.6 20:07:29 18° E 20:12:22 58° NNE 20:18:46 10° WNW
Spot 2 Rocket 3.6 20:09:36 23° SE 20:12:42 60° ENE 20:17:45 10° N
Resurs 01 Rocket 1.6 20:12:05 18° SSE 20:15:25 89° ENE 20:19:54 10° NNW
Cosmos 1818 3.8 20:13:05 10° SW 20:18:34 74° NW 20:24:05 10° NE
Cosmos 1763 Rocket 4.2 20:13:41 10° NNW 20:18:39 38° NE 20:20:24 30° E
ARGOS 3.1 20:14:55 16° SSE 20:19:21 87° ENE 20:24:47 10° NNW
Cosmos 1954 Rocket 4.0 20:14:22 10° S 20:19:37 64° ESE 20:24:53 10° NNE
Cosmos 676 Rocket 3.9 20:15:21 10° SSW 20:20:39 71° ESE 20:25:59 10° NNE
Cosmos 1844 Rocket 3.6 20:17:41 10° NNW 20:22:42 33° NE 20:24:38 26° E
Cosmos 468 Rocket 4.2 20:19:40 10° NNW 20:24:52 53° ENE 20:26:44 36° ESE
MetOp-A 4.0 20:22:41 24° SSE 20:26:01 78° ENE 20:31:24 10° NNW
Cosmos 1758 3.3 20:29:33 51° SE 20:30:04 57° E 20:33:59 10° NNE
SL-08 RB Rocket 3.5 20:28:07 32° SSE 20:30:12 84° ENE 20:34:43 10° NNW
EO 1 Del DPAF 4.0 20:28:29 10° NNE 20:31:10 35° ENE 20:31:10 35° ENE
Cosmos 2058 Rocket 3.7 20:32:55 36° ENE 20:32:55 36° ENE 20:36:25 10° NNE
SPOT 5 3.9 20:33:29 28° ENE 20:33:54 29° ENE 20:37:57 10° N
Cosmos 1741 Rocket 4.5 20:34:46 38° E 20:34:46 38° E 20:39:27 10° NE
SL-4 R/B 2.0 20:32:52 10° W 20:37:15 82° N 20:38:07 55° E
Cosmos 1461 3.8 20:34:23 10° WSW 20:38:42 51° NW 20:42:53 10° NE
H-2A R/B 2.4 20:35:40 18° S 20:39:44 69° WSW 20:45:02 10° NNW
Cosmos 1674 4.4 20:36:37 10° NNW 20:40:02 32° W 20:43:22 10° SSW
ADEOS Rocket 3.9 20:38:22 10° NE 20:42:07 27° ENE 20:42:07 27° ENE
Timation 1 Rocket 4.3 20:37:17 10° NNW 20:43:18 78° NE 20:45:32 41° SE
Cosmos 1825 Rocket 4.3 20:42:35 10° NNW 20:46:54 52° W 20:49:32 22° SSW
IRAS Rocket 4.4 20:48:40 44° ESE 20:50:02 56° ENE 20:55:33 10° N
Cosmos 1441 Rocket 4.3 20:52:23 33° NNE 20:52:23 33° NNE 20:54:42 10° NNE
Cosmos 2034 Rocket 4.4 20:46:37 10° N 20:52:40 42° ENE 20:53:43 39° E
Landsat 7 4.3 20:53:17 43° ENE 20:53:18 43° ENE 20:57:48 10° N
NOSS 3-2 (C) 3.6 20:48:39 10° SSW 20:54:16 47° ESE 21:00:35 10° NE
Cosmos 1606 Rocket 3.6 20:53:31 29° SSW 20:55:39 74° WNW 20:59:59 10° N
Cosmos 1464 Rocket 4.0 20:49:43 10° N 20:55:46 57° ENE 20:57:06 47° ESE
Cosmos 1697 Rocket 4.5 20:53:37 10° WSW 20:58:38 32° NW 21:03:40 10° NNE
Cosmos 1470 2.7 20:59:12 84° NW 20:59:12 84° NW 21:03:08 10° N
Cosmos 2322 Rocket 2.0 20:54:05 10° SSW 20:59:39 69° ESE 21:05:15 10° NNE
SL-14 R/B 3.9 20:57:38 10° NNW 21:01:24 52° W 21:01:57 47° SW
Cosmos 1626 2.4 20:58:19 10° NNW 21:01:41 67° NW 21:01:41 67° NW
Cosmos 2285 Rocket 4.1 20:55:51 10° SSW 21:02:14 81° WNW 21:08:43 10° NNE
NOSS 3-2 (A) 3.3 20:56:38 10° SSW 21:02:31 71° SE 21:09:12 10° NE
ISS -1.7 21:08:29 10° W 21:09:56 24° W 21:09:56 24° W
SPOT 1/Viking Rocket 3.4 21:14:07 68° E 21:14:21 69° ENE 21:19:34 10° N
Meteor 1-16 Rocket 4.4 21:16:10 50° ENE 21:16:10 50° ENE 21:20:54 10° NNE
ATLAS 3B R/B 2.5 21:09:46 10° SSW 21:16:35 67° SE 21:23:14 10° NE
Cosmos 2263 Rocket 3.5 21:12:45 10° NW 21:17:42 34° WSW 21:20:14 23° SSW
Terra 2.6 21:19:11 39° NE 21:19:11 39° NE 21:22:55 10° N
Cosmos 1570 Rocket 4.2 21:15:53 10° NNW 21:21:11 65° WSW 21:22:01 57° SSW
CENTAUR R/B 3.9 21:25:17 26° ENE 21:25:17 26° ENE 21:28:28 10° NE
SL-16 R/B 2.3 21:18:34 10° SW 21:24:15 77° WNW 21:29:58 10° NNE
Cosmos 1726 Rocket 4.4 21:23:21 36° WSW 21:24:37 47° WNW 21:28:50 10° N
CZ-2C R/B 3.2 21:26:50 57° SW 21:27:32 64° WSW 21:32:28 10° NNW
CZ-2C R/B 3.6 21:22:41 10° NNE 21:25:48 33° NE 21:25:48 33° NE
GEOS 3 Rocket 3.5 21:32:17 86° ENE 21:32:19 86° NE 21:37:32 10° NW
Cosmos 1844 3.6 21:32:02 10° NNW 21:37:47 77° NE 21:37:47 77° NE
Cosmos 1953 3.8 21:45:05 36° WNW 21:45:05 36° WNW 21:48:39 10° N
Cosmos 841 Rocket 3.6 21:40:22 10° NNW 21:45:11 72° WNW 21:45:11 72° WNW
ERS-1 Rocket 3.4 21:47:14 57° W 21:47:14 57° W 21:52:07 10° NNW
Cosmos 2360 Rocket 2.9 21:50:51 42° NE 21:50:51 42° NE 21:54:33 10° NNE
Resurs 01 Rocket 4.4 21:50:40 10° WSW 21:52:34 12° W 21:54:29 10° WNW
Thor Agena Rocket 3.8 21:47:59 10° N 21:52:59 61° WNW 21:53:02 61° WNW
Cosmos 1980 Rocket 4.4 21:49:21 10° W 21:53:57 25° NW 21:58:36 10° NNE
Cosmos 2278 Rocket 2.9 21:49:04 10° NNW 21:54:01 43° NE 21:54:01 43° NE
Cosmos 2219 Rocket 4.5 21:59:04 12° NE 21:59:04 12° NE 21:59:33 10° NE
USA 234 3.1 21:54:49 78° SSE 21:55:15 83° SSW 22:01:51 10° WNW
Cosmos 1763 Rocket 4.4 21:55:34 10° NW 22:00:26 41° WSW 22:00:26 41° WSW
USA 238 DEB 4.3 21:55:44 10° WSW 22:02:25 55° NW 22:09:20 10° NE
USA 238 4.3 21:55:50 10° WSW 22:02:30 55° NW 22:09:25 10° NE
Cosmos 1844 Rocket 3.1 22:01:27 10° NW 22:06:18 54° W 22:06:18 54° W
SPOT 5 3.9 22:12:43 42° WNW 22:12:43 42° WNW 22:16:27 10° NNW
Cosmos 540 Rocket 4.3 22:08:49 10° NNW 22:12:45 49° NW 22:12:45 49° NW
ADEOS Rocket 3.3 22:23:37 10° N 22:29:05 56° WNW 22:29:05 56° WNW
Cosmos 2333 Rocket 4.1 22:38:18 21° NE 22:38:18 21° NE 22:40:09 10° NE
Cosmos 2322 Rocket 3.9 22:39:21 10° WSW 22:44:12 29° NW 22:49:05 10° NNE
NOSS 3-2 (C) 4.2 22:39:10 10° WSW 22:45:09 53° NNW 22:51:59 10° NE
Terra 3.9 22:58:03 23° WNW 22:58:03 23° WNW 23:00:27 10° NW
SeaSat 1 4.4 23:00:12 24° NNE 23:00:12 24° NNE 23:03:06 10° NNW
ATLAS 3B R/B 3.6 23:01:10 10° WSW 23:07:39 44° NNW 23:14:00 10° NE
CZ-2C R/B 4.2 23:03:20 10° N 23:07:20 30° NW 23:07:20 30° NW
SL-16 R/B 4.4 23:05:02 10° W 23:09:20 21° NW 23:13:38 10° NNE
CENTAUR R/B 3.1 23:12:20 57° NW 23:12:24 57° NW 23:19:43 10° NE
Cosmos 2360 Rocket 4.0 23:32:31 25° WNW 23:33:31 27° NW 23:38:17 10° NNE
SL-16 R/B 4.4 23:40:36 16° NE 23:40:36 16° NE 23:41:51 10° NE
ATLAS 5 CENTAUR R/B 3.8 23:36:17 50° NW 23:37:00 52° NNW 23:51:47 10° ENE
COSMOS 2428 4.2 23:40:08 34° N 23:40:08 34° N 23:43:35 10° NNE
Cosmos 2219 Rocket 3.7 23:40:45 32° N 23:40:45 32° N 23:43:52 10° NNE
Cosmos 2278 Rocket 4.0 23:33:19 10° NW 23:35:52 25° WNW 23:35:52 25° WNW
Cosmos 2237 Rocket 4.0 23:42:14 26° NNE 23:42:14 26° NNE 23:44:34 10° NNE
Cosmos 2369 Rocket 3.8 23:49:10 10° NNW 23:52:39 30° N 23:52:39 30° N
